Port Heiden, AK

3:55 AM AKDT on May 24, 2017 (GMT -0800)
Port Heiden

Weather History for PAPH - July, 2014

Change the Weather History Date:

Tuesday, July 1, 2014

  Actual Average Record
Temperature  
Mean Temperature 52 °F -  
Max Temperature 59 °F 54 °F 64 °F (2004)
Min Temperature 44 °F 43 °F 35 °F (2006)
Degree Days  
Heating Degree Days 14    
Growing Degree Days 2 (Base 50)    
Moisture  
Dew Point 41 °F    
Average Humidity 71    
Maximum Humidity 81    
Minimum Humidity 53    
Precipitation  
Precipitation 0.00 in - - ()
Sea Level Pressure  
Sea Level Pressure 30.14 in    
Wind  
Wind Speed 4 mph (North)    
Max Wind Speed 13 mph    
Max Gust Speed -    
Visibility 9 miles    
Events      
Averages and records for this station are not official NWS values.
T = Trace of Precipitation, MM = Missing Value Source: NWS Daily Summary

Daily Weather History Graph

Daily Weather History Graph

Search for Another Location

Airport or City:

Trip Planner

Search our weather history database for the weather conditions in past years. The results will help you decide how hot, cold, wet, or windy it might be!

Date:

Astronomy

Jul. 01, 2014 Rise Set
Actual Time 5:45 AM AKDT 11:30 PM AKDT
Civil Twilight 4:39 AM AKDT 12:36 AM AKDT
Nautical Twilight 3:10 AM AKDT 2:06 AM AKDT
Astronomical Twilight Sun does not set Sun does not set
Moon 11:04 AM AKDT (7/1) 12:34 AM AKDT (7/1)
Length of Visible Light 19h 57m
Length of Day
17h 45m
Waxing Crescent, 18% of the Moon is Illuminated
Jul 1
Waxing Crescent
Jul 5
First Quarter
Jul 12
Full
Jul 18
Last Quarter
Jul 26
New

Hourly Weather History & Observations

Time (AKDT) Temp. Windchill Dew Point Humidity Pressure Visibility Wind Dir Wind Speed Gust Speed Precip Events Conditions
12:16 AM 44.6 °F - 37.4 °F 76% 30.15 in 3.0 mi Calm Calm - N/A   Overcast
12:36 AM 44.6 °F - 37.4 °F 76% 30.15 in 5.0 mi Calm Calm - N/A   Overcast
12:56 AM 44.6 °F - 37.4 °F 76% 30.15 in 10.0 mi Calm Calm - N/A   Overcast
1:16 AM 44.6 °F - 37.4 °F 76% 30.15 in 8.0 mi Calm Calm - N/A   Overcast
1:36 AM 44.6 °F - 37.4 °F 76% 30.15 in 10.0 mi Calm Calm - N/A   Overcast
1:56 AM 44.6 °F - 37.4 °F 76% 30.16 in 10.0 mi Calm Calm - N/A   Overcast
2:16 AM 44.6 °F - 37.4 °F 76% 30.16 in 10.0 mi Calm Calm - N/A   Overcast
2:36 AM 44.6 °F 42.2 °F 37.4 °F 76% 30.16 in 10.0 mi SE 4.6 mph - N/A   Overcast
2:56 AM 44.6 °F 43.1 °F 37.4 °F 76% 30.16 in 10.0 mi SSE 3.5 mph - N/A   Overcast
3:16 AM 44.6 °F 43.1 °F 37.4 °F 76% 30.16 in 10.0 mi SSE 3.5 mph - N/A   Overcast
3:36 AM 44.6 °F - 37.4 °F 76% 30.16 in 10.0 mi Calm Calm - N/A   Overcast
3:56 AM 44.6 °F 43.1 °F 37.4 °F 76% 30.16 in 10.0 mi South 3.5 mph - N/A   Overcast
4:16 AM 44.6 °F - 37.4 °F 76% 30.16 in 10.0 mi Calm Calm - N/A   Overcast
4:36 AM 44.6 °F - 37.4 °F 76% 30.16 in 10.0 mi Calm Calm - N/A   Overcast
4:56 AM 44.6 °F - 37.4 °F 76% 30.15 in 10.0 mi Calm Calm - N/A   Overcast
5:16 AM 44.6 °F - 37.4 °F 76% 30.15 in 10.0 mi Calm Calm - N/A   Overcast
5:36 AM 44.6 °F - 37.4 °F 76% 30.15 in 10.0 mi Calm Calm - N/A   Overcast
5:56 AM 44.6 °F - 37.4 °F 76% 30.15 in 9.0 mi Calm Calm - N/A   Overcast
6:16 AM 44.6 °F - 37.4 °F 76% 30.15 in 8.0 mi Calm Calm - N/A   Overcast
6:36 AM 44.6 °F - 37.4 °F 76% 30.16 in 3.0 mi Calm Calm - N/A   Overcast
6:56 AM 44.6 °F - 39.2 °F 81% 30.15 in 3.0 mi Calm Calm - N/A   Overcast
7:16 AM 44.6 °F - 39.2 °F 81% 30.15 in 7.0 mi Calm Calm - N/A   Overcast
7:36 AM 44.6 °F - 39.2 °F 81% 30.16 in 10.0 mi Calm Calm - N/A   Overcast
7:56 AM 44.6 °F - 39.2 °F 81% 30.16 in 7.0 mi Calm Calm - N/A   Overcast
8:16 AM 44.6 °F 43.1 °F 39.2 °F 81% 30.16 in 1.8 mi NNW 3.5 mph - N/A   Overcast
8:36 AM 44.6 °F 41.4 °F 39.2 °F 81% 30.16 in 9.0 mi North 5.8 mph - N/A   Overcast
8:56 AM 46.4 °F 43.5 °F 39.2 °F 76% 30.16 in 10.0 mi North 5.8 mph - N/A   Overcast
9:16 AM 46.4 °F 43.5 °F 39.2 °F 76% 30.16 in 10.0 mi NNE 5.8 mph - N/A   Overcast
9:36 AM 46.4 °F 43.5 °F 39.2 °F 76% 30.16 in 10.0 mi North 5.8 mph - N/A   Overcast
9:56 AM 48.2 °F - 41.0 °F 76% 30.16 in 10.0 mi NNW 3.5 mph - N/A   Overcast
10:16 AM 48.2 °F - 41.0 °F 76% 30.16 in 10.0 mi NNW 4.6 mph - N/A   Overcast
10:36 AM 48.2 °F - 41.0 °F 76% 30.16 in 10.0 mi NW 8.1 mph - N/A   Mostly Cloudy
10:56 AM 50.0 °F - 42.8 °F 76% 30.16 in 10.0 mi WNW 3.5 mph - N/A   Overcast
11:16 AM 51.8 °F - 42.8 °F 71% 30.16 in 10.0 mi Calm Calm - N/A   Overcast
11:36 AM 51.8 °F - 42.8 °F 71% 30.15 in 10.0 mi West 5.8 mph - N/A   Overcast
11:56 AM 51.8 °F - 42.8 °F 71% 30.15 in 10.0 mi West 3.5 mph - N/A   Mostly Cloudy
12:16 PM 53.6 °F - 42.8 °F 67% 30.16 in 10.0 mi WNW 9.2 mph - N/A   Mostly Cloudy
12:36 PM 53.6 °F - 42.8 °F 67% 30.15 in 10.0 mi WNW 6.9 mph - N/A   Scattered Clouds
12:56 PM 53.6 °F - 42.8 °F 67% 30.15 in 10.0 mi NNW 6.9 mph - N/A   Clear
1:16 PM 53.6 °F - 42.8 °F 67% 30.15 in 10.0 mi NNW 11.5 mph - N/A   Clear
1:36 PM 53.6 °F - 41.0 °F 62% 30.15 in 10.0 mi NW 11.5 mph - N/A   Mostly Cloudy
1:56 PM 51.8 °F - 41.0 °F 67% 30.16 in 10.0 mi NNW 11.5 mph - N/A   Overcast
2:16 PM 48.2 °F - 39.2 °F 71% 30.16 in 10.0 mi NW 11.5 mph - N/A   Overcast
2:36 PM 48.2 °F - 39.2 °F 71% 30.16 in 10.0 mi NNW 10.4 mph - N/A   Overcast
2:56 PM 51.8 °F - 41.0 °F 67% 30.15 in 10.0 mi NNW 11.5 mph - N/A   Overcast
3:36 PM 50.0 °F - 41.0 °F 71% 30.15 in 10.0 mi North 11.5 mph - N/A   Overcast
3:56 PM 51.8 °F - 41.0 °F 67% 30.15 in 10.0 mi North 12.7 mph - N/A   Overcast
4:16 PM 51.8 °F - 41.0 °F 67% 30.15 in 10.0 mi NNE 11.5 mph - N/A   Overcast
4:36 PM 53.6 °F - 42.8 °F 67% 30.14 in 10.0 mi NNE 11.5 mph - N/A   Overcast
4:56 PM 53.6 °F - 42.8 °F 67% 30.14 in 10.0 mi NE 11.5 mph - N/A   Overcast
5:16 PM 53.6 °F - 42.8 °F 67% 30.13 in 10.0 mi NNE 10.4 mph - N/A   Overcast
5:36 PM 55.4 °F - 42.8 °F 63% 30.13 in 10.0 mi NNE 11.5 mph - N/A   Overcast
5:56 PM 55.4 °F - 42.8 °F 63% 30.13 in 10.0 mi NNE 10.4 mph - N/A   Overcast
6:16 PM 57.2 °F - 44.6 °F 63% 30.12 in 10.0 mi NNE 9.2 mph - N/A   Overcast
6:36 PM 57.2 °F - 44.6 °F 63% 30.12 in 10.0 mi North 11.5 mph - N/A   Overcast
6:56 PM 55.4 °F - 42.8 °F 63% 30.11 in 10.0 mi NNW 9.2 mph - N/A   Overcast
7:16 PM 59.0 °F - 44.6 °F 59% 30.11 in 10.0 mi NNE 9.2 mph - N/A   Overcast
7:36 PM 57.2 °F - 42.8 °F 59% 30.11 in 10.0 mi NNE 11.5 mph - N/A   Overcast
7:56 PM 57.2 °F - 42.8 °F 59% 30.11 in 10.0 mi NNE 9.2 mph - N/A   Overcast
8:16 PM 57.2 °F - 42.8 °F 59% 30.11 in 10.0 mi NE 9.2 mph - N/A   Overcast
8:36 PM 57.2 °F - 42.8 °F 59% 30.11 in 10.0 mi NNE 9.2 mph - N/A   Overcast
8:56 PM 57.2 °F - 44.6 °F 63% 30.11 in 10.0 mi NE 8.1 mph - N/A   Overcast
9:16 PM 55.4 °F - 44.6 °F 67% 30.11 in 10.0 mi NNE 5.8 mph - N/A   Mostly Cloudy
9:36 PM 55.4 °F - 42.8 °F 63% 30.11 in 10.0 mi NNE 6.9 mph - N/A   Partly Cloudy
9:56 PM 55.4 °F - 42.8 °F 63% 30.10 in 10.0 mi NNE 8.1 mph - N/A   Clear
10:16 PM 55.4 °F - 42.8 °F 63% 30.10 in 10.0 mi NE 6.9 mph - N/A   Clear
10:36 PM 53.6 °F - 42.8 °F 67% 30.10 in 10.0 mi NE 4.6 mph - N/A   Clear
10:56 PM 53.6 °F - 42.8 °F 67% 30.10 in 10.0 mi Calm Calm - N/A   Partly Cloudy
11:16 PM 51.8 °F - 42.8 °F 71% 30.10 in 10.0 mi Calm Calm - N/A   Partly Cloudy
11:36 PM 51.8 °F - 42.8 °F 71% 30.10 in 10.0 mi South 3.5 mph - N/A   Partly Cloudy
11:56 PM 51.8 °F - 42.8 °F 71% 30.10 in 10.0 mi Calm Calm - N/A   Clear